This is the latest recevied weather packets stored in our database for station/object SQ9SMC-13. If no packets are shown the sender has not sent any weather packets the latest 10 day(s).
| Time | Temp. | Humidity | Pressure | Rain* | Wind** | Luminosity | Snow |
|---|---|---|---|---|---|---|---|
| 1777996203 | 26.67° C | 21% | 1008.2 hPa | 0 mm | - | 166 W/m² | - |
| 1777995903 | 27.22° C | 20% | 1008.1 hPa | 0 mm | - | 180 W/m² | - |
| 1777995602 | 27.22° C | 20% | 1008.2 hPa | 0 mm | - | 199 W/m² | - |
| 1777995304 | 27.22° C | 20% | 1008.2 hPa | 0 mm | - | 212 W/m² | - |
| 1777995006 | 27.22° C | 19% | 1008.1 hPa | 0 mm | - | 193 W/m² | - |
| 1777994702 | 26.67° C | 20% | 1007.9 hPa | 0 mm | - | 127 W/m² | - |
| 1777994403 | 27.78° C | 19% | 1008.2 hPa | 0 mm | - | 187 W/m² | - |
| 1777994104 | 27.78° C | 19% | 1008.2 hPa | 0 mm | - | 286 W/m² | - |
| 1777993804 | 27.78° C | 20% | 1008.2 hPa | 0 mm | - | 302 W/m² | - |
| 1777993503 | 27.78° C | 18% | 1008 hPa | 0 mm | - | 311 W/m² | - |
| 1777993204 | 27.78° C | 18% | 1008.3 hPa | 0 mm | - | 330 W/m² | - |
| 1777992903 | 27.78° C | 17% | 1008.2 hPa | 0 mm | - | 347 W/m² | - |
| 1777992602 | 27.78° C | 17% | 1008.3 hPa | 0 mm | - | 345 W/m² | - |
| 1777992304 | 28.33° C | 16% | 1008.3 hPa | 0 mm | - | 372 W/m² | - |
| 1777992005 | 27.22° C | 17% | 1008.3 hPa | 0 mm | - | 333 W/m² | - |
| 1777991703 | 27.22° C | 16% | 1008.3 hPa | 0 mm | - | 137 W/m² | - |
| 1777991403 | 28.33° C | 16% | 1008.3 hPa | 0 mm | - | 290 W/m² | - |
| 1777991104 | 28.33° C | 18% | 1008.5 hPa | 0 mm | - | 315 W/m² | - |
| 1777990803 | 27.78° C | 19% | 1008.4 hPa | 0 mm | - | 266 W/m² | - |
| 1777990504 | 27.78° C | 20% | 1008.5 hPa | 0 mm | - | 404 W/m² | - |
| 1777989902 | 27.78° C | 20% | 1008.8 hPa | 0 mm | - | 419 W/m² | - |
| 1777989603 | 28.33° C | 21% | 1008.7 hPa | 0 mm | - | 453 W/m² | - |
| 1777989303 | 27.78° C | 21% | 1008.9 hPa | 0 mm | - | 486 W/m² | - |
| 1777989002 | 27.78° C | 21% | 1008.7 hPa | 0 mm | - | 495 W/m² | - |
| 1777988703 | 27.22° C | 22% | 1008.8 hPa | 0 mm | - | 470 W/m² | - |
* Rain latest hour (hover to see other rain measurements)
** Current wind speed in m/s (hover to see current wind gust speed)